Location: Bettgenhausen
(50.6463°N, 7.5681°E)
Time: 20:12:50
(UTC+00:00)

CRYOSAT 2 - Pass Details

Date: 27 February 2020
Orbit: 712 x 725 km, 92.0° (Epoch: 30 March)

Event Time Altitude Azimuth Distance (km) Brightness Sun altitude
Rises 17:44:48 0° 161° (SSE) 3,131 7.5 -6.8°
Reaches altitude 10° 17:47:06 10° 157° (SSE) 2,215 6.7 -7.2°
Maximum altitude 17:51:54 57° 80° (E) 853 4.5 -7.9°
Drops below altitude 10° 17:56:44 10° 2° (N) 2,230 6.9 -8.7°
Sets 17:59:04 0° 359° (N) 3,155 7.7 -9.1°
